Weather History for Cheyenne, WY

Change the Weather History Date:

Saturday, January 19, 2013

  Actual Average Record
Temperature  
Mean Temperature 39 °F 29 °F  
Max Temperature 50 °F 40 °F 61 °F (1986)
Min Temperature 27 °F 18 °F -26 °F (1883)
Degree Days  
Heating Degree Days 26 36  
Month to date heating degree days 783 685  
Since 1 July heating degree days 3485 3588  
Cooling Degree Days 0 0  
Month to date cooling degree days 0 0  
Year to date cooling degree days 0 0  
Moisture  
Dew Point 5 °F    
Average Humidity 25    
Maximum Humidity 36    
Minimum Humidity 13    
Precipitation  
Precipitation 0.00 in 0.01 in 0.44 in (1945)
Month to date precipitation 0.12 0.20  
Year to date precipitation 0.12 0.20  
Snow  
Snow 0.00 in 0.20 in 4.60 in (1945)
Month to date snowfall 2.9 3.6  
Since 1 July snowfall 28.3 26.3  
Snow Depth T in    
Sea Level Pressure  
Sea Level Pressure 30.15 in    
Wind  
Wind Speed 12 mph (West)    
Max Wind Speed 30 mph    
Max Gust Speed 36 mph    
Visibility 10 miles    
Events      
T = Trace of Precipitation, MM = Missing Value Source: NWS Daily Summary

Daily Weather History Graph

Daily Weather History Graph

Search for Another Location

Airport:

Trip Planner

Search our weather history database for the weather conditions in past years. The results will help you decide how hot, cold, wet, or windy it might be!

Date:

Astronomy

Jan. 19, 2013 Rise Set
Actual Time 7:20 AM MST 5:00 PM MST
Civil Twilight 6:50 AM MST 5:30 PM MST
Nautical Twilight 6:16 AM MST 6:04 PM MST
Astronomical Twilight 5:43 AM MST 6:37 PM MST
Moon 11:28 AM MST (1/19) 12:56 AM MST (1/19)
Length of Visible Light 10h 40m
Length of Day
9h 40m
First Quarter, 58% of the Moon is Illuminated
Jan 19
First Quarter
Jan 26
Full
Feb 3
Last Quarter
Feb 10
New
Feb 17
First Quarter

Hourly Weather History & Observations

Time (MST) Temp. Windchill Dew Point Humidity Pressure Visibility Wind Dir Wind Speed Gust Speed Precip Events Conditions
12:53 AM 36.0 °F 24.7 °F 6.1 °F 29% 30.02 in 10.0 mi West 21.9 mph 26.5 mph N/A   Clear
1:53 AM 35.1 °F 25.9 °F 6.1 °F 30% 30.05 in 10.0 mi West 13.8 mph - N/A   Clear
2:53 AM 34.0 °F 24.6 °F 5.0 °F 30% 30.06 in 10.0 mi WNW 13.8 mph - N/A   Clear
3:53 AM 33.1 °F 26.9 °F 6.1 °F 32% 30.10 in 10.0 mi NW 6.9 mph - N/A   Clear
4:53 AM 36.0 °F 25.3 °F 5.0 °F 27% 30.10 in 10.0 mi NNW 19.6 mph 28.8 mph N/A   Clear
5:53 AM 34.0 °F 26.6 °F 5.0 °F 30% 30.17 in 10.0 mi NW 9.2 mph 17.3 mph N/A   Clear
6:53 AM 30.9 °F 21.7 °F 6.1 °F 35% 30.21 in 10.0 mi West 11.5 mph - N/A   Clear
7:53 AM 30.9 °F - 5.0 °F 33% 30.22 in 10.0 mi Calm Calm - N/A   Clear
8:53 AM 35.1 °F 27.9 °F 6.1 °F 30% 30.24 in 10.0 mi West 9.2 mph - N/A   Clear
9:53 AM 41.0 °F 32.8 °F 5.0 °F 23% 30.20 in 10.0 mi West 16.1 mph 23.0 mph N/A   Clear
10:53 AM 45.0 °F 36.9 °F 5.0 °F 19% 30.19 in 10.0 mi West 20.7 mph 28.8 mph N/A   Clear
11:53 AM 46.9 °F - 5.0 °F 18% 30.16 in 10.0 mi West 11.5 mph - N/A   Clear
12:53 PM 48.9 °F - -0.0 °F 13% 30.12 in 10.0 mi WNW 16.1 mph 23.0 mph N/A   Clear
1:53 PM 50.0 °F - 3.0 °F 15% 30.11 in 10.0 mi West 17.3 mph 24.2 mph N/A   Clear
2:53 PM 48.0 °F - 1.9 °F 15% 30.13 in 10.0 mi West 19.6 mph 27.6 mph N/A   Clear
3:53 PM 46.9 °F - 1.9 °F 16% 30.14 in 10.0 mi WNW 23.0 mph 28.8 mph N/A   Clear
4:53 PM 43.0 °F 36.0 °F 3.9 °F 20% 30.15 in 10.0 mi West 13.8 mph - N/A   Clear
5:53 PM 39.0 °F 32.3 °F 7.0 °F 27% 30.19 in 10.0 mi WSW 10.4 mph - N/A   Clear
6:53 PM 37.0 °F 30.4 °F 6.1 °F 28% 30.24 in 10.0 mi WNW 9.2 mph - N/A   Clear
7:53 PM 33.1 °F 26.1 °F 8.1 °F 35% 30.26 in 10.0 mi WSW 8.1 mph - N/A   Clear
8:53 PM 36.0 °F 30.3 °F 3.9 °F 26% 30.21 in 10.0 mi WSW 6.9 mph - N/A   Clear
9:53 PM 34.0 °F 29.8 °F 3.9 °F 28% 30.17 in 10.0 mi WNW 4.6 mph - N/A   Clear
10:53 PM 36.0 °F 27.5 °F 5.0 °F 27% 30.13 in 10.0 mi WSW 12.7 mph - N/A   Clear
11:53 PM 34.0 °F - 9.0 °F 35% 30.12 in 10.0 mi Calm Calm - N/A   Clear